Regional Weather Roundup
Issued by NWS State College, PA

Home | Current Version | Previous Version | Graphics & Text | Print | Product List | Glossary On
Versions: 1 2 3 4 5 6 7 8 9 10 11 12 13 14 15 16 17 18 19 20 21 22 23 24 25 26 27 28 29 30 31 32 33 34 35 36 37 38 39 40 41 42 43 44 45 46 47 48 49 50
000
ASUS41 KCTP 232003
RWRCTP

REGIONAL WEATHER ROUNDUP
NATIONAL WEATHER SERVICE STATE COLLEGE PA
400 PM EDT SUN JUL 23 2017

Note: "fair" indicates few or no clouds below 12,000 feet with no
significant weather and/or obstructions to visibility.

* = STATION THAT DOES NOT REPORT PRECIPITATION /E.G. RAIN...SNOW...ETC/
    THUNDER OR FOG.

PAZ002>004-007>009-013>016-020>023-029>032-232100-
WESTERN PENNSYLVANIA

CITY           SKY/WX    TMP DP  RH WIND       PRES   REMARKS
ERIE           CLOUDY    78  70  76 NW7       29.76F
MEADVILLE      NOT AVBL
FRANKLIN*      PTSUNNY   82  68  61 W14       29.78F
NEW CASTLE     FAIR      85  70  60 W9        29.77F
BEAVER COUNTY  MOSUNNY   82  72  69 SW7       29.78F
BUTLER*        CLOUDY    81  72  74 S6        29.79F
PITTSBURGH INT CLOUDY    76  71  85 SW10      29.79F
PITTSBURGH     CLOUDY    73  68  84 S10       29.80F
INDIANA*       MOSUNNY   79  73  83 SW9G16    29.83F
LATROBE        CLOUDY    73  73 100 SW14      29.83F
WASHINGTON CO* CLOUDY    73  70  88 SW3       29.81F
$$

PAZ004>006-010>012-017>019-024>028-033>037-041-042-045-046-049>053-232100-
CENTRAL PENNSYLVANIA

CITY           SKY/WX    TMP DP  RH WIND       PRES   REMARKS
BRADFORD       CLOUDY    81  66  60 W8        29.80F
DUBOIS         CLOUDY    80  69  69 SW10      29.80F
CLEARFIELD     CLOUDY    80  71  74 SW10      29.80S
JOHNSTOWN      CLOUDY    73  69  87 W10       29.86S
ALTOONA        LGT RAIN  78  73  84 SW6       29.81F
STATE COLLEGE  MOSUNNY   86  68  54 W9        29.78F
WILLIAMSPORT   CLOUDY    84  74  71 E8        29.74F
SELINSGROVE    CLOUDY    84  74  71 E3        29.75F
FT INDIANTOWN  MOSUNNY   82  73  73 E6        29.77F
CAPITAL CITY   MOSUNNY   88  70  55 E9        29.74F
HARRISBURG     PTSUNNY   87  74  64 SE7       29.74F HX  95
YORK           CLOUDY    85  75  72 E6        29.75F
$$

PAZ038>040-043-044-047-048-054-055-060>062-067>071-232100-
EASTERN PENNSYLVANIA

CITY           SKY/WX    TMP DP  RH WIND       PRES   REMARKS
SCRANTON       CLOUDY    79  66  64 S6        29.80F
MOUNT POCONO   CLOUDY    70  67  90 SE8       29.87F
ALLENTOWN      PTSUNNY   84  68  58 E7        29.80S
QUAKERTOWN*    MOCLDY    82  68  61 SE6       29.82R
READING        PTSUNNY   84  73  69 CALM      29.77F
LANCASTER      PTSUNNY   87  74  64 E8        29.77S HX  95
COATESVILLE    CLOUDY    84  72  65 VRB7G13   29.81S
POTTSTOWN      PTSUNNY   80  71  74 VRB5      29.81S
BLUE BELL      MOSUNNY   81  72  74 E6        29.81S
DOYLESTOWN     MOSUNNY   81  69  67 CALM      29.80S
WILLOW GROVE   NOT AVBL
NORTH PHILA    PTSUNNY   83  69  62 SE9       29.81S
PHILADELPHIA   PTSUNNY   89  71  55 E9        29.78S HX  95
$$




USA.gov is the U.S. government's official web portal to all federal, state and local government web resources and services.